Previsão horária em Alibaevskoe

Hoje, 19 Junho, Sábado

Tempo Temperatura Precipitação Vento Pressão Humidade
00:00 +11°C° 0 mm 3 m/s 731 mmHg 65%
01:00 +10°C° 0 mm 3 m/s 731 mmHg 68%
02:00 +10°C° 0 mm 3 m/s 731 mmHg 69%
03:00 +10°C° 0 mm 2 m/s 732 mmHg 70%
04:00 +9°C° 0 mm 2 m/s 732 mmHg 69%
05:00 +12°C° 0 mm 2 m/s 732 mmHg 62%
06:00 +14°C° 0 mm 2 m/s 733 mmHg 54%
07:00 +16°C° 0 mm 2 m/s 733 mmHg 47%
08:00 +17°C° 0 mm 3 m/s 733 mmHg 43%
09:00 +18°C° 0 mm 3 m/s 733 mmHg 39%
10:00 +20°C° 0 mm 4 m/s 733 mmHg 35%
11:00 +21°C° 0 mm 4 m/s 733 mmHg 35%
12:00 +21°C° 0 mm 4 m/s 733 mmHg 35%
13:00 +22°C° 0 mm 4 m/s 732 mmHg 35%
14:00 +23°C° 0 mm 4 m/s 732 mmHg 35%
15:00 +23°C° 0 mm 4 m/s 732 mmHg 35%
16:00 +25°C° 0 mm 4 m/s 731 mmHg 35%
17:00 +23°C° 0 mm 5 m/s 731 mmHg 42%
18:00 +22°C° 0 mm 5 m/s 731 mmHg 48%
19:00 +21°C° 0 mm 5 m/s 731 mmHg 54%
20:00 +19°C° 0 mm 5 m/s 731 mmHg 61%
21:00 +18°C° 0 mm 4 m/s 731 mmHg 68%
22:00 +16°C° 0 mm 3 m/s 731 mmHg 75%
23:00 +15°C° 0 mm 4 m/s 730 mmHg 77%

Amanhã, 20 Junho, Domingo

Tempo Temperatura Precipitação Vento Pressão Humidade
00:00 +15°C° 0 mm 5 m/s 730 mmHg 78%
01:00 +15°C° 0 mm 5 m/s 730 mmHg 80%
02:00 +15°C° 0 mm 6 m/s 730 mmHg 81%
03:00 +15°C° 0 mm 6 m/s 729 mmHg 82%
04:00 +15°C° 0 mm 6 m/s 729 mmHg 83%
05:00 +16°C° 0 mm 7 m/s 729 mmHg 79%
06:00 +17°C° 0 mm 7 m/s 729 mmHg 75%
07:00 +20°C° 0 mm 7 m/s 729 mmHg 71%
08:00 +22°C° 0 mm 8 m/s 729 mmHg 64%
09:00 +24°C° 0 mm 8 m/s 729 mmHg 57%
10:00 +27°C° 0 mm 8 m/s 729 mmHg 51%
11:00 +28°C° 0 mm 9 m/s 728 mmHg 48%
12:00 +28°C° 0 mm 9 m/s 728 mmHg 46%
13:00 +29°C° 0 mm 9 m/s 728 mmHg 43%
14:00 +29°C° 0 mm 9 m/s 728 mmHg 44%
15:00 +29°C° 0 mm 9 m/s 728 mmHg 45%
16:00 +29°C° 0 mm 10 m/s 728 mmHg 45%
17:00 +27°C° 0 mm 9 m/s 729 mmHg 47%
18:00 +26°C° 0 mm 8 m/s 729 mmHg 49%
19:00 +24°C° 0 mm 7 m/s 729 mmHg 51%
20:00 +22°C° 0 mm 6 m/s 729 mmHg 54%
21:00 +20°C° 0 mm 5 m/s 729 mmHg 57%
22:00 +18°C° 0 mm 4 m/s 730 mmHg 60%
23:00 +17°C° 0 mm 4 m/s 730 mmHg 58%

Depois de amanhã, 21 Junho, Segunda-feira

Tempo Temperatura Precipitação Vento Pressão Humidade
00:00 +14°C° 0 mm 3 m/s 730 mmHg 56%
01:00 +13°C° 0 mm 3 m/s 730 mmHg 54%
02:00 +13°C° 0 mm 2 m/s 730 mmHg 56%
03:00 +13°C° 0 mm 2 m/s 731 mmHg 58%
04:00 +12°C° 0 mm 2 m/s 731 mmHg 60%
05:00 +14°C° 0 mm 2 m/s 731 mmHg 55%
06:00 +16°C° 0 mm 3 m/s 732 mmHg 50%
07:00 +17°C° 0 mm 3 m/s 732 mmHg 46%
08:00 +19°C° 0 mm 4 m/s 732 mmHg 40%
09:00 +20°C° 0 mm 4 m/s 732 mmHg 35%
10:00 +21°C° 0 mm 4 m/s 732 mmHg 29%
11:00 +22°C° 0 mm 5 m/s 732 mmHg 29%
12:00 +23°C° 0 mm 5 m/s 732 mmHg 29%
13:00 +25°C° 0 mm 5 m/s 732 mmHg 28%
14:00 +26°C° 0 mm 5 m/s 732 mmHg 29%
15:00 +26°C° 0 mm 5 m/s 732 mmHg 30%
16:00 +26°C° 0 mm 5 m/s 732 mmHg 31%
17:00 +25°C° 0 mm 4 m/s 732 mmHg 36%
18:00 +24°C° 0 mm 3 m/s 732 mmHg 40%
19:00 +23°C° 0 mm 2 m/s 732 mmHg 45%
20:00 +20°C° 0 mm 2 m/s 732 mmHg 48%
21:00 +18°C° 0 mm 2 m/s 732 mmHg 50%
22:00 +16°C° 0 mm 1 m/s 732 mmHg 52%
23:00 +16°C° 0 mm 1 m/s 732 mmHg 53%

22 Junho, Terça-feira

Tempo Temperatura Precipitação Vento Pressão Humidade
00:00 +15°C° 0 mm 1 m/s 732 mmHg 55%
01:00 +14°C° 0 mm 0 m/s 732 mmHg 56%
02:00 +14°C° 0 mm 1 m/s 732 mmHg 58%
03:00 +14°C° 0 mm 1 m/s 732 mmHg 60%
04:00 +14°C° 0 mm 1 m/s 732 mmHg 62%
05:00 +16°C° 0 mm 2 m/s 732 mmHg 58%
06:00 +18°C° 0 mm 2 m/s 732 mmHg 55%
07:00 +20°C° 0 mm 3 m/s 732 mmHg 52%
08:00 +22°C° 0 mm 3 m/s 732 mmHg 51%
09:00 +25°C° 0 mm 4 m/s 732 mmHg 50%
10:00 +27°C° 0 mm 4 m/s 732 mmHg 49%
11:00 +28°C° 0 mm 5 m/s 732 mmHg 46%
12:00 +29°C° 0 mm 5 m/s 731 mmHg 42%
13:00 +32°C° 0 mm 6 m/s 731 mmHg 38%
14:00 +30°C° 0 mm 6 m/s 731 mmHg 42%
15:00 +29°C° 0 mm 6 m/s 731 mmHg 45%
16:00 +29°C° 0 mm 7 m/s 731 mmHg 48%
17:00 +28°C° 0 mm 6 m/s 731 mmHg 52%
18:00 +27°C° 0 mm 6 m/s 730 mmHg 57%
19:00 +26°C° 0 mm 6 m/s 730 mmHg 61%
20:00 +25°C° 0 mm 5 m/s 730 mmHg 67%
21:00 +22°C° 0 mm 4 m/s 730 mmHg 74%
22:00 +20°C° 0 mm 3 m/s 730 mmHg 80%
23:00 +20°C° 0 mm 4 m/s 730 mmHg 80%

23 Junho, Quarta-feira

Tempo Temperatura Precipitação Vento Pressão Humidade
00:00 +20°C° 0 mm 4 m/s 730 mmHg 80%
01:00 +20°C° 0 mm 4 m/s 730 mmHg 80%
02:00 +20°C° 0.1 mm 4 m/s 730 mmHg 81%
03:00 +19°C° 0.1 mm 4 m/s 730 mmHg 83%
04:00 +19°C° 0.1 mm 3 m/s 730 mmHg 84%
05:00 +20°C° 0 mm 4 m/s 730 mmHg 79%
06:00 +21°C° 0 mm 4 m/s 730 mmHg 74%
07:00 +23°C° 0 mm 4 m/s 731 mmHg 70%
08:00 +23°C° 0.1 mm 4 m/s 731 mmHg 67%
09:00 +25°C° 0.1 mm 3 m/s 731 mmHg 65%
10:00 +25°C° 0.1 mm 3 m/s 731 mmHg 62%
11:00 +26°C° 0.2 mm 3 m/s 731 mmHg 60%
12:00 +27°C° 0.2 mm 3 m/s 731 mmHg 57%
13:00 +27°C° 0.2 mm 3 m/s 731 mmHg 55%
14:00 +27°C° 0.1 mm 3 m/s 731 mmHg 53%
15:00 +28°C° 0.1 mm 3 m/s 731 mmHg 52%
16:00 +28°C° 0.1 mm 3 m/s 731 mmHg 50%
17:00 +27°C° 0.1 mm 2 m/s 731 mmHg 54%
18:00 +27°C° 0.1 mm 2 m/s 731 mmHg 58%
19:00 +26°C° 0.1 mm 2 m/s 730 mmHg 62%
20:00 +24°C° 0.4 mm 2 m/s 730 mmHg 69%
21:00 +22°C° 0.4 mm 1 m/s 730 mmHg 76%
22:00 +20°C° 0.4 mm 1 m/s 730 mmHg 82%
23:00 +20°C° 0.1 mm 1 m/s 730 mmHg 84%

24 Junho, Quinta-feira

Tempo Temperatura Precipitação Vento Pressão Humidade
00:00 +19°C° 0.1 mm 1 m/s 730 mmHg 85%
01:00 +19°C° 0.1 mm 1 m/s 730 mmHg 86%
02:00 +19°C° 0 mm 1 m/s 729 mmHg 87%
03:00 +18°C° 0 mm 2 m/s 729 mmHg 88%
04:00 +18°C° 0 mm 2 m/s 729 mmHg 89%
05:00 +19°C° 0 mm 3 m/s 729 mmHg 82%
06:00 +21°C° 0 mm 3 m/s 729 mmHg 75%
07:00 +23°C° 0 mm 4 m/s 729 mmHg 69%
08:00 +26°C° 0 mm 5 m/s 728 mmHg 62%
09:00 +27°C° 0 mm 6 m/s 728 mmHg 55%
10:00 +29°C° 0 mm 7 m/s 728 mmHg 48%
11:00 +30°C° 0 mm 6 m/s 728 mmHg 46%
12:00 +30°C° 0 mm 6 m/s 727 mmHg 45%
13:00 +30°C° 0 mm 6 m/s 727 mmHg 43%
14:00 +30°C° 0 mm 6 m/s 727 mmHg 43%
15:00 +30°C° 0 mm 6 m/s 727 mmHg 42%
16:00 +30°C° 0 mm 5 m/s 727 mmHg 42%
17:00 +29°C° 0.1 mm 6 m/s 727 mmHg 48%
18:00 +27°C° 0.1 mm 6 m/s 727 mmHg 55%
19:00 +26°C° 0.1 mm 6 m/s 727 mmHg 61%
20:00 +23°C° 0.3 mm 5 m/s 727 mmHg 71%
21:00 +21°C° 0.3 mm 3 m/s 727 mmHg 80%
22:00 +19°C° 0.3 mm 2 m/s 728 mmHg 90%
23:00 +19°C° 0 mm 2 m/s 728 mmHg 90%
Mostrar mais